Aérodrome :
LOGIN :

S'inscrire | Disclaimer

   EN    FR    IT 

 










Légende :    VFR   VFR Marginal   IFR   IFR Intensif   IFR Très Intensif
Visi : 
Plafond : 
>= 8 km
>= 3000ft
5 à 8 km
1000 à 3000 ft
1500m à 5 km
500 à 1000 ft
800 à 1500m
200 à 500 ft
< 800m
< 200 ft
Symboles :   Orages  Brouillard  Fortes neiges  Fortes précipitations  Vent > 20 kt
SIGMETs :   Divers  Orages  Givrage  Turbulence  Onde Orograph.  Cendres Volcan.







- Altitude de l'aérodrome : 42 ft
- Code IATA : LMO


EGQS - Lossiemouth

DERNIER METAR :
  • 241150Z 24013KT 9999 FEW014 FEW020CB BKN060 02/M01 Q1002 BLU TEMPO 7000 -SHRASN SCT020CB WHT

METARs EXPIRÉS :
  • 241050Z 25010KT 9999 FEW014 FEW020CB 01/M01 Q1002 BLU TEMPO 7000 -SHRASN SCT020CB WHT
  • 240950Z 24009KT 9999 FEW020 00/M02 Q1001 BLU NOSIG

TAF TAF EGQS
Valide du 24 à 12h jusqu'au 25 à 06h UTC


241055Z 2412/2506 26014KT 9999 FEW020 SCT040
PROB30
TEMPO 2412/2418 28020G30KT 3000 SHRASN SCT012 BKN020CB
PROB30
TEMPO 2418/2506 30015G25KT 3000 SHRASN SCT012 BKN020CB
Pas de NOTAMs connus pour ce terrain.



MET'MAP, la Météo Aéronautique d'un coup d'oeil ! - Copyright ORBIFLY Décembre 2007 - Disclaimer

ORBIFLY MET'MAP TEAM :

Programmation & Développement : Alexandra Zaïnal
Conception & Développement : Baudouin d'Aumeries
Co-Programmation & Développement : Marc-Olivier Méhu
Soutien technique & logistique : Manuel Goepfert

Contact : metmap@orbifly.com




SOURCES & CREDITS :

   NOAA